Regional Weather Roundup
Issued by NWS

Home | Current Version | Previous Version | Graphics & Text | Print | Product List | Glossary On
Versions: 1 2 3 4 5 6 7 8 9 10 11 12 13 14 15 16 17 18 19 20 21 22 23 24 25 26 27 28 29 30 31 32 33 34 35 36 37 38 39 40 41 42 43 44 45 46 47 48 49 50
094
ASUS45 KBOU 260507
RWRCO

WEATHER ROUNDUP FOR COLORADO
NATIONAL WEATHER SERVICE DENVER/BOULDER CO
1100 PM MDT TUE JUL 25 2017

NOTE: "FAIR" INDICATES FEW OR NO CLOUDS BELOW 12000 FEET WITH NO
SIGNIFICANT WEATHER AND/OR OBSTRUCTIONS TO VISIBILITY.

COZ001>005-013-030-031-260600-
...NORTHWEST COLORADO...

CITY           SKY/WX    TMP DP  RH WIND       PRES   REMARKS
CRAIG          LGT RAIN  64  60  87 CALM      30.25F
HAYDEN         MOCLDY    63  57  82 E3        30.27F
MEEKER         LGT RAIN  63  58  83 W6        30.28R
RABBIT EARS PA FAIR      50  50 100 S7        30.55S
STEAMBOAT SPGS MOCLDY    58  56  93 CALM      30.29F
WALDEN         FAIR      54  52  94 S3        30.39S
$$

COZ006>008-011-260600-
...WEST CENTRAL VALLEYS...

CITY           SKY/WX    TMP DP  RH WIND       PRES   REMARKS
GRAND JUNCTION LGT RAIN  69  64  84 E12       30.15F
MONTROSE       MOCLDY    64  63  96 NW6       30.25R
EAGLE          FAIR      62  60  93 E5        30.30F
RIFLE          FAIR      70  56  61 S5        30.20S
DELTA          LGT RAIN  68  63  85 CALM      30.21R
NUCLA          CLOUDY    63  55  77 SE5       30.29S
$$

COZ017>023-064>068-260600-
...SOUTHWEST COLORADO...

CITY           SKY/WX    TMP DP  RH WIND       PRES   REMARKS
DURANGO        FAIR      63  59  87 CALM      30.30S
CORTEZ         FAIR      61  59  93 SE6       30.25R
PAGOSA SPRINGS FAIR      64  60  86 E5        30.40F
TELLURIDE      CLOUDY    56  53  89 CALM      30.49R
WOLF CREEK PAS FOG       46  46 100 S6        30.73F VSB 1/4
$$

COZ009-010-012-014-032>034-037-058>063-260600-
...CENTRAL COLORADO...

CITY           SKY/WX    TMP DP  RH WIND       PRES   REMARKS
ASPEN          FAIR      56  55  97 CALM      30.36F
BUENA VISTA    FAIR      58  56  91 NW3       30.40S
COPPER MTN     CLOUDY    54  43  66 CALM      30.67F
BERTHOUD PASS  CLOUDY    45  32  61 W14       30.70S
COTTONWOOD PAS FAIR      59  46  63 W3        30.52F
GUNNISON       FAIR      60  54  80 N8        30.37F
KREMMLING      MOCLDY    68  54  60 N3        30.34F
LEADVILLE      MOCLDY    49  47  93 NE3       30.49F
MONARCH PASS   CLOUDY    46  45  93 SW17      30.78F
SALIDA         CLOUDY    62  59  90 CALM      30.44F
SUNLIGHT       MOCLDY    46  46 100 SW8       30.59F
WILKERSON PASS MOCLDY    50  45  81 SW6       30.65F HAZE
$$

COZ069>075-260600-
...SAN LUIS VALLEY/SANGRE DE CRISTO MOUNTAINS...

CITY           SKY/WX    TMP DP  RH WIND       PRES   REMARKS
ALAMOSA        LGT RAIN  61  59  93 W5        30.38R
DEL NORTE      CLOUDY    58  56  92 CALM      30.42S
LA VETA PASS   NOT AVBL
SAGUACHE         N/A    N/A N/A N/A MISG        N/A
$$

COZ035-036-038>040-260600-
...NORTHERN COLORADO FRONT RANGE...

CITY           SKY/WX    TMP DP  RH WIND       PRES   REMARKS
DENVER INTL AP CLOUDY    69  58  67 W9        30.18F
DMNS CITY PARK   N/A     68  60  74 W2        30.18F
AURORA         NOT AVBL
FRONT RANGE AP FAIR      66  61  82 W12G18    30.20S
ERIE MUNI ARPT FAIR      67  64  88 SW3       30.17F
BOULDER MUN AP DRIZZLE   68  63  83 S5        30.18S
CENTENNIAL     MOCLDY    67  61  81 W7        30.22F
BROOMFIELD     FAIR      66  61  82 W3        30.21F
FORT COLLINS   LGT RAIN  69  62  78 E3        30.18R
LONGMONT       MOCLDY    69  63  80 CALM      30.19S
$$

COZ041-046-047-076>085-087-088-260600-
...PIKES PEAK/PALMER DIVIDE AND SOUTHERN FOOTHILLS...

CITY           SKY/WX    TMP DP  RH WIND       PRES   REMARKS
COLO. SPRINGS  CLOUDY    70  58  65 NW10      30.24R
A. F. ACADEMY  LGT RAIN  64  57  77 N8        30.26R
SCHRIEVER AFB  MOCLDY    67  55  65 NW18G25   30.23R
CHEYENNE MTN   MOCLDY    68  55  64 CALM      30.23F
ELLICOTT       MOCLDY   N/A N/A N/A N10       30.21R
FALCON           N/A     65  55  70 NW14G20   30.28R
FORT CARSON    NOT AVBL
LIMON          FAIR      66  61  84 NW12      30.16R
MONUMENT HILL  FAIR      57  55  94 W7        30.32R
CANON CITY     CLOUDY    70  63  78 W14       30.21R THUNDER
WALSENBURG     CLOUDY    73  61  64 N8        30.24R
TRINIDAD       FAIR      73  60  63 NW10      30.19R
$$

COZ042>045-048>051-090-091-260600-
...NORTHEAST COLORADO...

CITY           SKY/WX    TMP DP  RH WIND       PRES   REMARKS
GREELEY ARPT   MOCLDY    71  61  70 W7        30.16R
AKRON          FAIR      71  60  68 W15       30.09S
BURLINGTON     FAIR      76  62  62 N8        30.05F
WRAY           NOT AVBL
YUMA           CLOUDY    70  55  60 S6        30.05R
STERLING       FAIR      79  55  44 N17G23    30.01S
HOLYOKE        FAIR      73  66  78 S12       29.99R
FORT MORGAN    FAIR      71  58  64 W14       30.11S
$$

COZ086-089-092>099-260600-
...SOUTHEAST COLORADO...

CITY           SKY/WX    TMP DP  RH WIND       PRES   REMARKS
PUEBLO         MOCLDY    74  61  63 N9        30.13R
LA JUNTA       FAIR      77  59  53 NW9       30.05S
LAMAR          FAIR      75  64  68 N7        29.98R
SPRINGFIELD      N/A     81  57  43 S18G26    30.05S
$$




USA.gov is the U.S. government's official web portal to all federal, state and local government web resources and services.